Location: Newark
(53.4333°N, 36.0000°E)
Time: 15:24:03
(UTC+00:00)

Envisat - Visible Passes

Search period start: 19 September 2019 00:00
Search period end: 29 September 2019 00:00
Orbit: 764 x 766 km, 98.1° (Epoch: 19 September)

Date Brightness Start Highest point End Pass type
(mag) Time Alt. Az. Time Alt. Az. Time Alt. Az.
19 Sep 5.5 16:44:37 10° SSW 16:48:47 25° W 16:52:59 10° NW visible
21 Sep 6.0 17:11:30 10° SW 17:14:38 16° W 17:17:45 10° NW visible
22 Sep 5.1 16:32:58 10° SSW 16:37:25 30° W 16:41:54 10° NNW visible
24 Sep 5.8 16:59:35 10° SW 17:03:13 19° W 17:06:53 10° NW visible
25 Sep 4.8 16:21:24 10° SSW 16:26:04 36° W 16:30:47 10° NNW visible
26 Sep 6.2 17:27:07 10° WSW 17:29:07 12° W 17:31:08 10° WNW visible
27 Sep 5.5 16:47:47 10° SW 16:51:49 23° W 16:55:54 10° NW visible
28 Sep 4.4 16:09:54 10° S 16:14:44 44° W 16:19:37 10° NNW visible
